星链-1965 (STARLINK-1965 )

导读 | 星芒AI

STARLINK-1965 是 SpaceX Starlink 项目中的第 1965 颗卫星,属于其低轨卫星互联网星座的一部分。该卫星于 2023 年发射,旨在为全球用户提供高速、低延迟的互联网服务。它运行在近地轨道,配备先进通信设备,支持全球范围内的宽带连接,尤其服务于偏远地区。Starlink 项目由数千颗卫星组成,致力于构建覆盖全球的卫星互联网网络。

基本信息
目录编号:
47566
目录名称:
STARLINK-1965
国际标识:
2021-009U
轨道中心:
EARTH
卫星名称:
星链-1965
卫星全名:
星链-1965 (STARLINK-1965 )
卫星状态:
在轨 (已飞行1776 天)
发射日期:
2021-02-04 UTC
国别 :
美国 (US)
星等 :
--
轨道信息
数据来源 国际轨道数据
星历时间: 2025-12-16T08:00:03+0800
16小时前
查看轨道信息
半长轴: 6792.997km
偏心率: 0.0004321
轨道倾角: 53.026°
近地点辐角 279.973°
升交点赤经 333.699°
平近点角 133.298°
近地点: 411.926km
远地点: 417.798km
周期: 92.865分钟
每日圈数: 15.50639
详细信息
固有亮度:
5
最大亮度:
2.5
卫星平台:
Starlink V1.0
覆盖范围:
全球
运营商:
太空探索技术公司
运营商所在国:
美国
制造商(研发单位):
太空探索技术公司
制造商所在国:
美国
使用方式:
暂无
卫星简介
星链(Starlink)计划是由太空探索技术公司(SpaceX)提出的一个巨型低轨卫星互联网星座项目,计划在2019年至2024年间在太空搭建由约1.2万颗卫星组成的“星链”网络,其中1584颗将部署在地球上空550千米处的近地轨道,并从2020年开始工作。该卫星仍在工作。
2D轨道图
3D轨道图
轨道高度分析图
轨道倾角分析图
轨道综合分析图
查看轨道综合分析图